User: anonymous   Login
Location: Saint Peter Port
(49.4500°N, 2.5330°W)
Time: 19:39:46
(UTC+01:00)
Language:

Cosmos 2242 Rocket - Orbit

View from above orbital plane
View from above orbital plane
View from above satellite
View from above satellite

Ground track
Ground track

The orbit data is extracted from the following two-line orbital elements,

1 22627U 93024B   17231.04966556 +.00000045 +00000-0 +29816-5 0  9992
2 22627 082.5209 041.7507 0024818 123.3164 016.3512 14.78085941311431
Epoch (UTC): 19 August 2017 01:11:31
Eccentricity: 0.0024818
inclination: 82.5209°
perigee height: 618 km
apogee height: 653 km
right ascension of ascending node: 41.7507°
argument of perigee: 123.3164°
revolutions per day: 14.78085941
mean anomaly at epoch: 16.3512°
orbit number at epoch: 31143

The dashed part of the orbit path shows where the satellite is in the earth's shadow,  

DLR